SCP
0 0 0 0 0 0 0 0 0 0 0 0 0 0 0 0 0 0 0 0 0 0 0 0 0 0 0 0 0 0 0 0 0 0 0 0 0 0 0 0 0 0 0 0
0 0 0 0 0 0 0 0 0 0 0 0 0 0 0 0 0 0 0 0 0 0 0 0 0 0 0 0 0 0 0 0 0 0 0 0 0 0 0 0 0 0 0 0
0 0 0 0 0 0 0 0 0 0 0 0 0 0 0 0 0 0 0 0 0 0 0 0 0 0 0 0 0 0 0 0 0 0 0 0 0 0 0 0 0 0 0 0
0 0 0 0 0 0 0 0 0 0 0 0 0 0 0 0 0 0 0 0 0 0 0 0 0 0 0 0 0 0 0 0 0 0 0 0 0 0 0 0 0 0 0 0
0 0 0 0 0 0 0 0 0 0 0 0 0 0 0 0 0 0 0 0 0 0 0 0 0 0 0 0 0 0 0 0 0 0 0 0 0 0 0 0 0 0 0 0
0 0 0 0 0 0 0 0 0 0 0 0 0 0 0 0 0 0 0 0 0 0 0 0 0 0 0 0 0 0 0 0 0 0 0 0 0 0 0 0 0 0 0 0
0 0 0 0 0 0 0 0 0 0 0 0 0 0 0 0 0 0 0 0 0 0 0 0 0 0 0 0 0 0 0 0 0 0 0 0 0 0 0 0 0 0 0 0
0 0 0 0 0 0 0 0 0 0 0 0 0 0 0 0 0 0 0 0 0 0 0 0 0 0 0 0 0 0 0 0 0 0 0 0 0 0 0 0 0 0 0 0
0 0 0 0 0 0 0 0 0 0 0 0 0 0 0 0 0 0 0 0 0 0 0 0 0 0 0 0 0 0 0 0 0 0 0 0 0 0 0 0 0 0 0 0
0 0 0 0 0 0 0 0 0 0 0 0 0 0 0 0 0 0 0 0 0 0 0 0 0 0 0 0 0 0 0 0 0 0 0 0 0 0 0 0 0 0 0 0
0 0 0 0 0 0 0 0 0 0 0 0 0 0 0 0 0 0 0 0 0 0 0 0 0 0 0 0 0 0 0 0 0 0 0 0 0 0 0 0 0 0 0 0
0 0 0 0 0 0 0 0 0 0 0 0 0 0 0 0 0 0 0 0 0 0 0 0 0 0 0 0 0 0 0 0 0 0 0 0 0 0 0 0 0 0 0 0
0 0 0 0 0 0 0 0 0 0 0 0 0 0 0 0 0 0 0 0 0 0 0 0 0 0 0 0 0 0 0 0 0 0 0 0 0 0 0 0 0 0 0 0
0 0 0 0 0 0 0 0 0 0 0 0 0 0 0 0 0 0 0 0 0 0 0 0 0 0 0 0 0 0 0 0 0 0 0 0 0 0 0 0 0 0 0 0
0 0 0 0 0 0 0 0 0 0 0 0 0 0 0 0 0 0 0 0 0 0 0 0 0 0 0 0 0 0 0 0 0 0 0 0 0 0 0 0 0 0 0 0
0 0 0 0 0 0 0 0 0 0 0 0 0 0 0 0 0 0 0 0 0 0 0 0 0 0 0 0 0 0 0 0 0 0 0 0 0 0 0 0 0 0 0 0
0 0 0 0 0 0 0 0 0 0 0 0 0 0 0 0 0 0 0 0 0 0 0 0 0 0 0 0 0 0 0 0 0 0 0 0 0 0 0 0 0 0 0 0
0 0 0 0 0 0 0 0 0 0 0 0 0 0 0 0 0 0 0 0 0 0 0 0 0 0 0 0 0 0 0 0 0 0 0 0 0 0 0 0 0 0 0 0
0 0 0 0 0 0 0 0 0 0 0 0 0 0 0 0 0 0 0 0 0 0 0 0 0 0 0 0 0 0 0 0 0 0 0 0 0 0 0 0 0 0 0 0
0 0 0 0 0 0 0 0 0 0 0 0 0 0 0 0 0 0 0 0 0 0 0 0 0 0 0 0 0 0 0 0 0 0 0 0 0 0 0 0 0 0 0 0
0 0 0 0 0 0 0 0 0 0 0 0 0 0 0 0 0 0 0 0 0 0 0 0 0 0 0 0 0 0 0 0 0 0 0 0 0 0 0 0 0 0 0 0
0 0 0 0 0 0 0 0 0 0 0 0 0 0 0 0 0 0 0 0 0 0 0 0 0 0 0 0 0 0 0 0 0 0 0 0 0 0 0 0 0 0 0 0
0 0 0 0 0 0 0 0 0 0 0 0 0 0 0 0 0 0 0 0 0 0 0 0 0 0 0 0 0 0 0 0 0 0 0 0 0 0 0 0 0 0 0 0
0 0 0 0 0 0 0 0 0 0 0 0 0 0 0 0 0 0 0 0 0 0 0 0 0 0 0 0 0 0 0 0 0 0 0 0 0 0 0 0 0 0 0 0
0 0 0 0 0 0 0 0 0 0 0 0 0 0 0 0 0 0 0 0 0 0 0 0 0 0 0 0 0 0 0 0 0 0 0 0 0 0 0 0 0 0 0 0
0 0 0 0 0 0 0 0 0 0 0 0 0 0 0 0 0 0 0 0 0 0 0 0 0 0 0 0 0 0 0 0 0 0 0 0 0 0 0 0 0 0 0 0
0 0 0 0 0 0 0 0 0 0 0 0 0 0 0 0 0 0 0 0 0 0 0 0 0 0 0 0 0 0 0 0 0 0 0 0 0 0 0 0 0 0 0 0
Wind_Speed
1 1 3 4 4 4 3 1 3 5 5 5 4 5 6 6 7 8 9 9 9 9 9 9 9 10 9 10 10 10 9 9 11 12 11 10 10 10 9 9 10 9 9 9
2 3 5 5 5 3 2 1 3 4 6 5 5 5 6 8 9 10 10 10 10 10 10 10 10 10 10 10 10 9 9 11 11 10 10 10 10 10 9 9 9 8 9 9
1 2 2 2 2 1 3 4 4 5 6 5 6 8 8 9 9 10 11 11 11 10 10 10 10 10 10 10 10 9 10 11 10 10 10 11 11 10 9 9 9 9 9 9
2 2 2 4 2 2 4 5 4 5 6 7 9 9 8 9 8 10 10 10 10 10 10 10 10 10 10 10 10 10 10 10 10 10 10 10 9 9 9 8 7 8 8 9
3 0 3 2 2 1 3 7 4 5 7 7 7 7 7 7 6 8 9 10 10 10 11 10 11 11 10 10 10 10 11 11 11 10 10 9 9 9 8 7 8 8 7 9
3 1 3 4 3 2 0 6 4 4 7 7 6 6 8 7 7 9 10 10 10 10 11 11 12 10 10 12 12 12 12 12 11 10 10 10 10 9 8 7 8 8 8 8
2 1 6 5 2 2 0 7 4 4 6 6 5 8 9 9 9 9 10 12 11 11 11 11 12 11 12 12 13 13 12 11 10 10 9 10 9 8 7 7 7 7 8 8
3 0 5 3 2 3 7 4 4 5 5 6 8 9 9 9 10 11 11 11 11 11 12 12 11 11 12 13 13 12 11 11 11 10 9 9 7 7 7 6 6 7 7 7
7 7 6 3 5 4 3 3 4 4 6 6 7 8 9 8 9 10 11 11 11 12 13 13 11 11 13 14 13 12 11 11 10 9 8 7 7 6 5 5 5 5 5 6
3 6 4 4 3 3 2 4 4 5 6 5 6 8 10 9 9 10 10 12 11 12 14 14 13 12 12 13 12 11 11 10 9 8 8 7 5 5 5 5 5 5 5 5
4 5 4 4 4 3 3 3 4 4 4 5 6 8 9 9 10 10 11 10 11 12 14 15 14 14 13 12 11 11 10 9 8 7 6 6 5 4 5 5 5 6 5 5
6 6 5 5 3 2 2 3 4 5 6 6 5 8 9 9 9 10 12 12 13 14 14 15 15 15 13 11 10 10 9 8 6 5 4 4 4 4 5 7 8 10 10 7
5 4 5 3 1 0 1 3 3 4 5 7 7 7 8 8 9 10 12 13 14 15 15 15 15 15 13 12 11 10 9 8 6 5 4 4 3 3 3 3 4 5 7 8
3 4 2 2 2 1 2 3 3 4 5 6 6 7 8 8 10 12 13 14 14 15 15 14 15 14 13 12 11 10 8 8 7 4 3 3 3 2 2 2 2 2 2 2
4 4 4 2 1 1 1 2 4 5 6 7 6 8 9 10 12 13 13 14 14 14 15 15 15 14 13 12 11 10 7 5 4 3 3 2 2 2 2 2 2 2 1 1
5 4 3 2 2 2 2 3 4 6 6 6 7 9 10 10 11 12 13 13 14 15 15 15 15 14 13 12 10 8 6 8 6 3 2 2 1 1 1 1 1 1 1 1
7 5 5 4 4 3 3 4 4 5 6 7 8 9 10 11 11 13 14 14 13 13 13 13 15 15 13 11 9 6 5 6 7 4 3 2 2 1 1 1 1 1 1 1
7 7 7 6 5 4 4 4 4 5 5 6 8 8 9 11 12 13 14 14 13 13 12 14 15 15 13 11 8 5 4 4 4 3 3 3 2 2 2 2 2 2 2 2
6 7 6 6 5 4 3 3 4 4 5 5 7 8 9 9 10 12 13 13 13 14 16 17 19 15 13 12 11 4 4 4 4 3 3 3 3 3 3 3 3 3 3 3
6 6 6 5 4 3 3 3 3 4 4 5 6 7 9 10 11 12 12 10 8 10 14 16 15 12 12 11 12 4 4 4 3 3 3 3 3 3 4 4 4 4 4 3
8 7 6 5 4 3 3 2 2 3 4 4 5 7 9 10 10 10 10 10 11 13 15 15 11 11 10 10 10 5 4 3 3 2 3 3 3 3 3 3 4 4 4 4
7 7 6 5 4 3 3 2 2 3 4 4 5 6 8 9 10 10 8 7 11 15 12 9 10 13 14 12 7 6 5 4 3 2 2 2 2 3 3 3 3 3 3 3
7 6 6 6 5 4 2 2 2 2 3 4 5 6 7 8 7 8 9 9 10 15 11 9 15 18 15 9 7 7 7 6 5 4 3 3 3 3 3 4 4 3 3 3
7 6 6 5 4 3 3 3 2 2 3 3 4 5 6 6 6 5 6 11 13 14 9 11 16 17 12 8 8 8 7 7 6 5 4 4 4 4 4 4 4 4 4 5
7 6 5 6 5 5 4 3 2 2 3 3 4 5 5 4 5 7 8 10 12 12 9 11 15 15 10 8 8 8 7 7 7 6 5 5 5 5 5 4 4 4 4 4
7 6 6 7 5 4 3 3 2 2 2 3 3 4 5 5 6 6 7 9 11 11 9 8 10 10 8 8 8 8 8 8 7 7 6 5 5 5 5 5 6 5 4 4
5 5 4 3 3 4 4 4 3 2 2 2 3 4 5 5 6 7 8 7 8 8 8 8 8 8 8 8 8 8 8 7 7 7 6 6 5 5 5 6 5 5 5 5
Wind_Direction
37 33 88 69 46 53 73 147 219 264 263 270 274 280 284 286 290 296 295 292 288 283 281 283 283 280 276 273 272 269 266 262 258 257 254 251 248 244 240 234 232 229 230 232
47 53 73 61 30 35 22 306 265 274 274 259 278 288 286 286 289 292 289 288 288 287 288 288 286 284 283 281 280 279 274 269 266 263 260 255 250 247 242 239 236 229 229 232
200 271 17 326 293 300 277 258 245 254 265 293 296 290 282 282 288 289 290 290 290 291 288 288 287 285 283 283 285 283 279 278 275 270 265 258 255 248 240 239 238 232 231 229
102 67 269 253 249 248 257 262 241 249 268 275 269 276 278 277 281 288 291 291 292 291 290 288 287 287 285 287 285 282 280 280 278 274 269 264 254 246 243 237 234 236 236 233
99 96 296 282 276 275 272 280 231 244 272 282 294 315 295 281 283 282 286 288 289 288 290 290 291 291 293 293 290 287 285 282 279 273 271 268 261 251 246 237 233 233 236 234
105 114 263 253 270 296 297 292 252 252 278 290 320 318 289 292 301 296 295 294 294 295 296 296 295 295 295 294 292 289 287 284 281 276 271 267 262 256 248 238 238 236 238 237
119 238 271 256 281 49 32 269 281 267 275 285 271 253 276 300 299 292 293 295 296 298 298 296 296 298 296 294 291 290 289 288 284 278 273 270 264 256 247 241 238 236 239 242
135 52 277 241 141 185 230 258 281 278 277 276 272 278 289 296 295 298 299 299 301 302 300 298 298 299 297 294 294 294 291 288 284 279 277 280 267 260 249 238 237 238 239 245
182 211 238 236 217 231 206 250 271 272 281 284 284 287 293 292 293 297 299 301 302 302 303 303 301 298 296 296 296 295 291 288 285 283 277 273 267 261 255 237 233 236 233 240
239 264 252 245 248 264 244 253 274 278 283 286 285 289 295 295 298 302 301 306 306 308 309 309 308 303 297 297 298 295 294 292 287 283 279 275 268 256 248 240 232 233 234 239
252 275 293 275 247 254 277 289 297 300 289 287 290 294 293 299 304 305 307 308 310 312 311 311 311 308 306 305 304 300 297 295 292 283 279 279 271 257 249 242 231 228 233 229
219 223 199 244 253 238 262 287 294 299 301 302 295 290 297 302 302 305 311 315 316 316 315 314 314 313 312 310 308 305 302 300 295 286 281 276 276 280 257 249 251 243 240 236
206 197 190 230 245 214 266 284 294 295 294 300 300 296 300 301 303 309 315 319 320 319 318 317 318 318 319 317 315 309 304 302 296 288 284 280 277 277 289 288 266 255 248 240
187 144 179 209 222 281 285 295 306 309 304 298 295 302 307 306 312 318 320 320 319 319 320 321 322 324 325 324 321 316 310 307 307 297 291 289 286 283 281 288 296 293 272 251
185 174 185 178 152 310 308 310 315 313 309 308 306 312 317 319 319 318 319 320 322 323 325 327 327 328 329 328 327 324 320 315 314 309 301 294 290 289 289 294 292 293 314 57
161 144 147 163 220 263 295 301 297 299 303 306 312 317 318 315 313 316 321 327 329 329 329 330 331 331 329 330 329 328 327 333 338 330 324 323 317 315 319 331 340 4 21 54
147 181 198 214 232 247 259 266 272 284 297 307 311 315 319 322 325 329 331 331 328 324 327 333 332 331 332 333 332 330 330 335 346 350 350 349 351 353 2 11 11 24 20 50
176 181 181 188 201 229 261 277 283 294 296 300 311 319 325 328 329 328 328 328 330 334 339 338 335 334 335 337 336 335 337 345 352 357 0 10 17 22 27 24 24 35 39 62
164 167 177 188 195 205 231 256 276 289 298 309 318 319 318 319 322 325 327 331 339 342 339 335 332 337 339 342 344 343 350 358 5 9 16 23 32 34 34 35 40 52 58 62
167 172 181 191 193 200 227 251 277 292 303 313 317 322 328 330 329 329 329 330 339 337 330 330 334 340 341 342 347 350 357 4 10 14 28 41 41 34 34 38 46 54 59 58
179 182 187 193 204 216 225 243 265 289 305 316 320 322 322 324 327 329 332 336 339 340 336 333 340 344 341 340 343 352 1 11 18 25 37 44 45 43 44 48 51 55 56 57
184 187 194 195 200 220 235 241 253 284 305 317 322 324 327 331 332 331 328 329 331 335 337 340 345 345 346 347 354 1 8 17 26 36 48 50 49 46 47 51 56 58 57 59
184 187 191 195 201 212 232 239 253 281 298 312 321 326 327 324 324 331 335 334 335 335 339 345 345 349 354 0 3 7 13 19 27 34 46 52 51 52 55 55 56 60 61 59
183 188 191 185 170 183 223 241 254 271 289 301 309 316 321 325 325 326 321 323 334 338 344 347 351 357 3 9 8 10 14 18 24 31 41 49 52 54 56 57 60 62 62 64
184 183 176 171 186 208 218 219 239 275 302 311 315 322 325 320 319 323 329 335 342 346 351 353 357 2 11 11 12 13 14 17 21 28 36 46 50 52 54 56 59 62 62 61
185 187 188 192 194 192 183 180 202 239 275 303 313 323 331 332 331 333 337 342 349 352 358 360 2 5 10 12 13 15 16 16 22 29 34 42 49 51 49 51 56 58 60 60
185 180 173 183 193 183 174 177 191 213 233 271 301 320 332 338 343 347 350 352 356 359 2 4 6 8 10 12 12 14 16 18 21 24 28 34 41 45 46 50 50 52 54 58